Location: Crayja
(6.2254°N, 10.6273°W)
Time: 08:25:31
(UTC+00:00)

Meteosat 1 Rocket2 - Pass Details

Date: 17 February 2020
Orbit: 485 x 2307 km, 28.3° (Epoch: 08 April)

Event Time Altitude Azimuth Distance (km) Brightness Sun altitude
Exits shadow 06:02:03 19° 282° (WNW) 2,562 5.5 -14.6°
Maximum altitude 06:07:24 50° 215° (SW) 1,219 4.4 -13.3°
Drops below altitude 10° 06:12:34 10° 140° (SE) 2,256 6.7 -12.0°
Sets 06:14:39 0° 134° (SE) 3,007 7.6 -11.5°
